sat.trackr.live / text

‹ back to catalog

GEESAT-1 06

NORAD 52790 · 2022-058F

PAYLOAD ACTIVE UNKNOWN

§ Identity

Operator
Country
PRC
Launch date
2022-06-02
Launch site
XICLF
Launch vehicle
Mass (kg)
RCS (m²)

External: N2YO · Heavens-Above · Gunter

§ Orbital elements

Epoch: 2026-09-20T22:08:31.680096Z

Period
97.19 min
Inclination
50.0044°
Eccentricity
0.0033034
Mean motion
14.81591107 rev/d
Perigee alt
601.2 km
Apogee alt
647.4 km
Semi-major
7,002.4 km
B*
1.4117e-4
RAAN
120.7731°
Arg perigee
152.3640°
Mean anomaly
207.9062°
Rev number
23,412

§ Raw data

GEESAT-1 061 52790U 22058F   26263.92258889  .00000900  00000+0  14117-3 0  99952 52790  50.0044 120.7731 0033034 152.3640 207.9062 14.81591107234128

JSON: /api/v1/satellites/52790 · /tle

For live sub-satellite position, see the globe view (requires WebGL).

§ Visibility from observer

Set your observer location to see the next 7 days of passes ≥ 10°. The values pass through the URL so the page stays shareable.

No JS? Fill the form by hand. The geolocation button needs JavaScript.